Regional Weather Roundup
Issued by NWS

Home | Current Version | Previous Version | Text Only | Print | Product List | Glossary On
Versions: 1 2 3 4 5 6 7 8 9 10 11 12 13 14 15 16 17 18 19 20 21 22 23 24 25 26 27
000
ASUS44 KBMX 010610
RWRAL

ALABAMA REGIONAL WEATHER ROUNDUP
NATIONAL WEATHER SERVICE BIRMINGHAM AL
100 AM CDT SUN MAY 01 2016

NOTE: "FAIR" INDICATES FEW OR NO CLOUDS BELOW 12,000 FEET
WITH NO SIGNIFICANT WEATHER AND/OR OBSTRUCTIONS TO VISIBILITY.

THE REMARK "TC" DENOTES TEMPERATURE IN DEGREES CELSIUS.

ALZ001>011-014-016>018-020-010700-
NORTH ALABAMA

CITY           SKY/WX    TMP DP  RH WIND       PRES   REMARKS
MUSCLE SHOALS  NOT AVBL
HUNTSVILLE     CLOUDY    69  65  86 S5        29.93R
6HR MIN TEMP:  68; 6HR MAX TEMP:  74;

DECATUR        PTCLDY    65  65 100 SE3       29.93S
6HR MIN TEMP:  65; 6HR MAX TEMP:  68;

HALEYVILLE     FAIR      67  65  93 S7        29.96S
6HR MIN TEMP:  65; 6HR MAX TEMP:  73;

GADSDEN        CLEAR     67  65  93 CALM      29.95S
6HR MIN TEMP:  67; 6HR MAX TEMP:  78;

$$

ALZ012-013-022-023-030>036-040>044-010700-
WEST CENTRAL ALABAMA

CITY           SKY/WX    TMP DP  RH WIND       PRES   REMARKS
TUSCALOOSA     CLEAR     65  64  97 CALM      29.93S
6HR MIN TEMP:  65; 6HR MAX TEMP:  77;

$$

ALZ015-024>027-033>036-040>044-010700-
CENTRAL ALABAMA

CITY           SKY/WX    TMP DP  RH WIND       PRES   REMARKS
BIRMINGHAM     PTCLDY    70  67  90 CALM      29.96S
6HR MIN TEMP:  70; 6HR MAX TEMP:  78;

MONTGOMERY     MOCLDY    73  67  81 E3        29.93R
6HR MIN TEMP:  73; 6HR MAX TEMP:  80;

SHELBY CO ARPT PTCLDY    69  66  90 CALM      29.94S
6HR MIN TEMP:  69; 6HR MAX TEMP:  77;

MAXWELL AFB    CLOUDY    71  68  89 CALM      29.93R
6HR MIN TEMP:  71; 6HR MAX TEMP:  80;

GREENVILLE     MOCLDY    73  69  87 SW7       29.92R
6HR MIN TEMP:  73; 6HR MAX TEMP:  77; 6HR PCP: TRACE;

$$

ALZ019-021-028-029-037-038-045>048-010700-
EAST CENTRAL ALABAMA

CITY           SKY/WX    TMP DP  RH WIND       PRES   REMARKS
ANNISTON       CLOUDY    70  65  84 CALM      29.96R
6HR MIN TEMP:  70; 6HR MAX TEMP:  79;

ALEXANDER CITY CLOUDY    73  70  93 CALM      29.97R
6HR MIN TEMP:  73; 6HR MAX TEMP:  78;

AUBURN         MOCLDY    73  65  75 S9        29.96S
6HR MIN TEMP:  73; 6HR MAX TEMP:  80;

$$

ALZ051>064-010700-
SOUTHWEST ALABAMA

CITY           SKY/WX    TMP DP  RH WIND       PRES   REMARKS
MOBILE         CLOUDY    68  68 100 S5        29.92S
6HR MIN TEMP:  66; 6HR MAX TEMP:  76; 6HR PCP:  1.22;

BROOKLEY FIELD MOCLDY    73  70  90 SE7       29.93S
6HR MIN TEMP:  68; 6HR MAX TEMP:  77; 6HR PCP:  0.52;

EVERGREEN      PTCLDY    67  64  90 VRB3      29.93R
6HR MIN TEMP:  67; 6HR MAX TEMP:  77; 6HR PCP:  0.01;

$$

ALZ049-050-065>069-010700-
SOUTHEAST ALABAMA

CITY           SKY/WX    TMP DP  RH WIND       PRES   REMARKS
DOTHAN         CLOUDY    73  68  84 S12       29.97F
6HR MIN TEMP:  73; 6HR MAX TEMP:  81;

OZARK          CLOUDY    74  72  94 SE14      29.90F
6HR MIN TEMP:  73; 6HR MAX TEMP:  80;

TROY           MOCLDY    75  69  81 S3        29.94R
6HR MIN TEMP:  74; 6HR MAX TEMP:  80;

EUFAULA        FAIR      74  67  78 S3        29.93R
6HR MIN TEMP:  71; 6HR MAX TEMP:  80;

$$




USA.gov is the U.S. government's official web portal to all federal, state and local government web resources and services.